TimePDT,TemperatureF,Dew PointF,Humidity,Sea Level PressureIn,VisibilityMPH,Wind Direction,Wind SpeedMPH,Gust SpeedMPH,PrecipitationIn,Events,Conditions,WindDirDegrees,DateUTC
12:52 AM,68.0,46.9,47,29.66,10.0,NNW,15.0,23.0,N/A,,Clear,330,2013-10-09 07:52:00
1:52 AM,66.9,46.0,47,29.65,10.0,NNW,16.1,-,N/A,,Clear,330,2013-10-09 08:52:00
2:52 AM,66.0,45.0,47,29.65,10.0,NNW,15.0,20.7,N/A,,Clear,330,2013-10-09 09:52:00
3:52 AM,66.9,44.1,44,29.65,7.0,NNW,17.3,29.9,N/A,,Clear,330,2013-10-09 10:52:00
4:52 AM,66.0,44.1,45,29.63,10.0,NNW,15.0,24.2,N/A,,Clear,330,2013-10-09 11:52:00
5:52 AM,66.0,42.1,42,29.64,10.0,NNW,16.1,-,N/A,,Clear,340,2013-10-09 12:52:00
6:52 AM,66.0,43.0,43,29.66,10.0,NNW,13.8,-,N/A,,Clear,330,2013-10-09 13:52:00
7:52 AM,66.9,44.1,44,29.68,10.0,NW,11.5,-,N/A,,Clear,320,2013-10-09 14:52:00
8:52 AM,68.0,42.1,39,29.69,10.0,NW,8.1,19.6,N/A,,Clear,320,2013-10-09 15:52:00
9:52 AM,70.0,42.1,36,29.71,10.0,West,9.2,-,N/A,,Clear,280,2013-10-09 16:52:00
10:52 AM,71.1,41.0,34,29.71,10.0,West,12.7,19.6,N/A,,Clear,280,2013-10-09 17:52:00
11:52 AM,71.1,39.9,32,29.70,10.0,Calm,Calm,-,N/A,,Clear,0,2013-10-09 18:52:00
12:52 PM,73.0,39.9,30,29.68,10.0,SE,6.9,-,N/A,,Clear,130,2013-10-09 19:52:00
1:52 PM,75.0,37.9,26,29.66,10.0,WSW,10.4,17.3,N/A,,Scattered Clouds,250,2013-10-09 20:52:00
2:52 PM,72.0,39.9,31,29.65,10.0,WNW,9.2,-,N/A,,Scattered Clouds,290,2013-10-09 21:52:00
3:52 PM,71.1,39.9,32,29.65,10.0,SSW,11.5,18.4,N/A,,Mostly Cloudy,210,2013-10-09 22:52:00
4:52 PM,71.1,39.0,31,29.64,10.0,Variable,6.9,-,N/A,,Mostly Cloudy,0,2013-10-09 23:52:00
5:52 PM,68.0,41.0,37,29.64,10.0,West,10.4,-,N/A,,Overcast,280,2013-10-10 00:52:00
6:52 PM,61.0,48.9,64,29.66,10.0,NNW,18.4,27.6,0.00,Rain,Light Rain,330,2013-10-10 01:52:00
7:52 PM,61.0,45.0,56,29.68,10.0,North,15.0,-,0.00,,Mostly Cloudy,350,2013-10-10 02:52:00
8:52 PM,61.0,45.0,56,29.70,10.0,North,12.7,20.7,N/A,,Mostly Cloudy,350,2013-10-10 03:52:00
9:12 PM,60.8,46.4,59,29.70,10.0,NNW,19.6,26.5,0.00,Rain,Light Rain,340,2013-10-10 04:12:00
9:52 PM,57.9,46.9,67,29.73,10.0,North,11.5,-,0.00,,Overcast,360,2013-10-10 04:52:00
10:52 PM,59.0,43.0,55,29.73,10.0,NW,11.5,-,N/A,,Clear,310,2013-10-10 05:52:00
11:52 PM,57.9,43.0,58,29.74,10.0,NNW,11.5,-,N/A,,Clear,340,2013-10-10 06:52:00